Tracking 18980 objects as of 22-Feb-2018
HD Live streaming from Space Station
objects crossing your sky now

FENGYUN 1C DEB

Track FENGYUN 1C DEB now!
10-day predictions


NORAD ID: 29776
Int'l Code: 1999-025BS
Perigee: 861.7 km
Apogee: 895.7 km
Inclination: 99.1 °
Period: 102.4 minutes
Semi major axis: 7249 km
RCS: 0.0722 m2 (small)
Launch date: May 10, 1999
Source: People's Republic of China (PRC)
Launch site: Taiyaun Space Center, China (TSC)

Note: This is SATELLITE DEBRIS
aabbcc
Your satellite tracking list
Your tracking list is empty




NASA's NSSDC Master Catalog

Two Line Element Set (TLE):
1 29776U 99025BS  18052.62971465 -.00000093  00000-0 -28387-4 0  9998
2 29776  99.0938  75.8833 0023440 335.5121 150.5532 14.06450584570020
Source of the keplerian elements: AFSPC